Dewpoint
56 56 56 56 56 56 56 56 57 57 57 58 58 58 58 58 57 47 31 36 37 60 54 19 14 12 13 10 13 13 15 14 16 17 30 37 42 53 52 52 56 59 60 65 66
55 55 55 55 56 56 56 56 56 56 57 57 58 58 57 57 43 34 49 58 59 60 20 14 11 12 8 7 10 7 9 11 13 14 20 27 39 51 51 53 58 61 62 63 63
54 54 54 54 55 56 56 56 56 56 56 57 57 57 57 55 39 32 60 59 62 54 18 13 10 11 9 5 7 5 3 6 9 11 16 29 48 52 48 51 56 60 60 61 62
54 53 53 54 54 55 55 56 56 56 56 56 56 57 57 47 26 36 66 62 63 37 23 14 15 14 10 7 8 5 2 3 1 10 12 27 49 51 49 55 60 61 61 60 60
53 53 53 53 54 54 54 55 55 55 55 55 56 57 52 34 27 47 65 61 36 28 23 12 15 14 9 7 10 8 11 11 13 12 10 42 48 54 56 59 60 60 59 59 59
53 52 52 53 53 54 55 55 55 54 55 55 56 57 44 27 31 44 41 32 27 27 17 18 19 21 14 13 12 14 21 34 33 22 35 45 54 53 57 58 58 58 57 57 57
53 53 52 52 53 53 54 54 54 54 55 55 56 51 37 26 32 40 32 25 24 24 18 20 25 22 20 19 20 35 37 43 41 38 42 48 49 54 57 57 57 56 56 56 56
53 53 52 52 52 53 54 54 54 56 55 56 57 48 29 29 34 37 30 24 26 23 25 27 27 24 22 22 20 22 33 29 45 45 46 44 45 55 57 56 55 54 54 54 53
52 52 52 52 52 52 53 53 55 55 55 57 50 40 24 41 33 33 33 25 26 25 26 26 26 22 21 17 16 20 11 21 40 45 45 43 50 55 56 55 54 54 53 51 51
51 52 52 52 52 52 52 53 57 57 52 49 43 37 27 26 32 37 36 30 28 27 26 25 22 18 15 13 9 14 13 16 28 42 44 40 51 54 56 55 54 53 51 50 49
50 51 51 52 52 51 50 42 38 43 39 27 29 20 24 27 29 30 36 33 29 24 19 22 16 13 12 15 18 16 14 16 34 46 42 43 51 52 54 54 53 52 51 49 48
50 50 51 52 51 51 48 27 30 34 27 29 31 30 30 30 27 28 32 27 26 18 19 20 15 13 15 14 18 19 19 33 42 43 43 48 49 52 53 52 52 52 50 48 47
50 51 51 51 50 49 30 26 31 34 29 21 24 27 31 32 26 25 26 23 21 19 18 14 16 16 18 18 19 20 22 36 37 44 43 46 45 49 52 52 52 51 49 48 48
50 50 50 50 43 34 25 35 34 36 26 23 21 21 24 24 25 25 23 22 18 17 15 18 18 17 18 17 19 18 23 34 42 38 32 43 28 46 49 51 51 50 48 47 48
50 50 49 48 40 28 32 35 34 36 17 20 25 27 23 23 24 27 23 21 17 17 20 18 19 20 19 17 19 28 29 37 40 34 37 41 33 43 47 49 50 50 50 48 48
49 49 49 43 43 35 33 34 38 27 16 19 25 23 24 22 21 25 24 23 19 19 20 21 23 20 18 19 21 36 36 38 33 23 19 28 28 31 43 45 48 50 50 49 47
49 49 48 41 27 37 39 38 26 19 18 22 26 22 19 21 19 21 22 23 19 21 22 23 21 19 21 26 31 24 27 18 17 16 18 27 25 24 39 44 45 49 50 49 48
48 48 47 41 41 38 36 32 25 18 15 26 27 23 21 20 20 18 20 20 23 22 18 20 19 20 21 21 22 23 25 17 17 16 16 25 18 29 44 47 46 47 51 50 49
47 41 43 47 45 42 25 26 22 21 20 21 24 26 23 20 19 22 21 19 21 23 24 22 20 22 21 21 21 22 20 26 21 23 16 15 22 32 41 43 46 47 50 48 47
44 38 43 48 49 40 23 23 23 24 29 26 24 27 24 22 21 22 22 21 20 20 25 28 26 22 23 23 25 24 24 23 23 21 18 16 20 20 31 38 46 46 48 48 47
44 30 44 45 44 33 18 18 20 25 29 26 29 25 25 24 21 20 20 20 20 21 24 29 31 28 27 25 23 24 22 26 29 25 20 18 19 29 29 32 36 43 47 48 47
42 25 39 47 37 31 21 20 32 26 29 27 28 28 28 27 27 20 21 23 24 24 24 29 34 28 25 31 31 27 26 30 25 29 25 26 22 29 34 33 38 39 46 46 46
38 38 45 46 34 31 31 27 25 24 27 27 27 28 30 33 33 24 23 30 30 29 27 38 34 30 31 31 31 29 29 29 34 34 30 26 20 30 34 38 40 42 45 46 46
40 32 41 42 41 40 37 32 30 31 28 28 29 29 29 31 36 35 25 33 36 31 48 45 36 32 25 26 27 30 30 29 33 34 27 24 24 26 32 35 41 43 45 44 45
35 39 42 36 37 40 39 35 33 32 34 35 32 30 29 31 34 33 34 36 37 44 38 42 35 31 27 26 26 27 26 27 30 30 29 27 23 26 29 31 39 45 46 44 44
33 34 34 29 38 38 38 37 35 36 36 34 36 38 39 38 38 33 35 37 35 39 39 44 34 34 31 28 26 27 27 29 28 27 27 29 28 29 38 39 42 45 45 44 44
36 38 38 29 28 30 37 36 36 37 36 38 39 39 40 40 43 42 42 41 41 39 41 42 39 38 30 31 31 31 31 30 29 30 30 27 29 37 39 41 45 47 45 45 45
Lifted_Index
12 12 12 13 13 13 13 12 12 12 12 11 11 11 11 11 11 11 11 11 12 12 11 11 10 10 9 9 8 6 4 2 1 2 2 1 -1 -2 -2 -3 -4 -4 -5 -5 -5
13 13 13 13 13 13 13 13 12 12 12 12 11 11 11 11 10 10 10 11 12 11 11 10 10 9 9 8 8 6 4 3 2 3 3 1 -1 -2 -3 -3 -4 -5 -4 -4 -4
13 13 13 13 13 13 13 13 13 12 12 12 12 11 11 10 9 8 9 10 11 11 11 10 10 9 8 8 7 6 5 4 4 4 4 2 -1 -3 -3 -4 -5 -5 -4 -4 -3
14 14 14 14 14 13 13 13 13 13 12 12 11 11 11 9 8 6 7 8 9 10 10 10 10 9 8 7 7 6 6 6 6 6 5 2 -1 -3 -3 -4 -4 -4 -4 -3 -3
14 14 14 14 14 14 13 13 13 13 12 12 11 11 10 8 7 6 6 8 9 10 10 10 9 8 7 7 7 6 6 6 6 6 4 1 -1 -3 -3 -4 -4 -4 -4 -3 -3
15 15 15 15 14 14 14 13 13 13 12 12 11 10 9 8 7 7 8 9 10 10 10 9 8 7 7 7 6 6 5 4 4 4 3 -0 -2 -3 -3 -4 -4 -3 -3 -3 -3
15 15 15 15 15 14 14 14 13 12 12 11 11 10 9 8 8 8 9 10 10 10 10 9 8 7 7 7 6 5 3 2 1 1 1 -1 -2 -3 -3 -3 -3 -3 -3 -3 -3
16 15 15 15 15 14 14 14 13 12 12 11 10 9 9 9 8 8 8 9 10 10 9 9 8 7 7 7 6 5 3 1 0 -1 -1 -2 -3 -3 -3 -3 -3 -3 -3 -3 -3
16 16 15 15 15 14 14 13 12 11 11 10 9 9 9 8 7 7 7 8 9 9 9 8 8 7 7 6 5 4 3 2 0 -1 -2 -3 -3 -3 -3 -3 -3 -3 -3 -3 -3
16 16 16 15 15 14 14 12 10 9 9 9 8 8 8 7 7 7 7 7 7 8 8 8 7 6 6 5 4 3 3 2 1 -1 -2 -3 -3 -3 -3 -3 -3 -3 -3 -3 -3
16 16 16 15 15 14 13 11 9 8 8 8 7 8 8 7 7 6 6 6 7 7 7 7 6 5 5 4 4 3 3 2 1 -1 -2 -3 -3 -3 -2 -2 -3 -3 -3 -3 -3
16 16 15 15 14 13 12 11 10 9 8 8 7 7 7 7 7 6 6 6 6 6 6 6 5 5 5 5 4 4 3 1 -0 -1 -2 -3 -3 -2 -2 -2 -2 -2 -3 -3 -3
16 16 15 14 14 13 12 11 10 9 8 7 7 7 7 7 6 6 6 6 6 6 6 5 5 5 5 5 4 3 2 0 -1 -2 -2 -2 -3 -2 -2 -2 -2 -2 -3 -3 -2
16 16 15 14 13 12 11 10 10 8 6 6 7 7 7 6 6 6 6 6 6 6 5 5 5 5 5 4 3 2 1 -0 -2 -2 -2 -2 -2 -3 -3 -2 -2 -2 -2 -2 -2
16 15 15 14 13 12 11 10 9 7 4 5 6 7 7 6 6 6 6 6 6 6 5 5 4 4 4 3 2 1 0 -1 -2 -2 -2 -2 -2 -3 -3 -3 -3 -3 -2 -2 -2
15 15 14 13 12 12 11 10 8 5 4 5 6 6 6 6 6 6 6 6 6 6 5 4 4 4 3 3 2 1 -0 -1 -1 -1 -1 -1 -1 -2 -3 -3 -3 -3 -2 -2 -1
14 14 13 12 12 11 10 8 6 4 4 5 5 5 5 5 5 6 6 6 5 5 4 3 3 3 3 2 2 1 0 -0 -0 -0 -0 -0 -0 -1 -2 -2 -3 -3 -2 -1 -1
13 12 11 10 10 10 9 6 5 5 5 5 4 4 5 5 5 5 5 5 5 4 3 2 2 3 3 2 2 1 1 0 -0 -0 -0 0 0 -1 -1 -2 -2 -2 -2 -1 -0
10 10 8 7 8 9 8 6 5 5 5 4 4 3 3 4 4 4 4 4 4 4 2 1 1 2 3 2 2 1 1 0 0 0 -0 0 0 -0 -1 -1 -2 -2 -2 -1 -0
8 7 5 5 5 7 7 6 5 5 4 4 3 3 3 3 4 4 4 4 4 4 3 1 1 2 2 2 1 1 0 0 0 -0 -0 -0 -0 -0 -0 -1 -1 -2 -1 -1 -0
7 6 5 4 4 5 6 6 5 4 4 4 3 3 2 2 3 3 3 3 3 3 3 1 0 1 1 1 1 0 0 -0 -0 -1 -0 -0 0 0 0 -0 -1 -1 -1 -1 -0
6 5 4 3 3 3 4 5 5 4 4 3 3 3 2 2 2 2 2 2 3 3 2 1 -0 -0 0 0 0 0 -0 -1 -1 -1 -1 -0 0 1 1 0 -0 -1 -1 -0 0
5 4 3 2 1 2 2 3 3 3 3 3 3 2 2 1 0 1 1 2 2 2 1 0 -1 -1 -1 -0 0 -0 -0 -1 -1 -1 -1 -0 0 1 1 0 0 -0 -0 0 1
5 3 2 1 1 1 1 1 2 2 2 2 2 2 1 0 -1 -1 0 1 1 1 0 -1 -1 -1 -1 -1 -1 -1 -0 -1 -1 -1 -1 -0 0 1 1 1 0 -0 0 1 1
5 5 4 3 2 1 1 1 1 1 1 1 1 1 1 -0 -1 -1 -1 -0 -0 -0 -0 -1 -1 -1 -1 -1 -1 -1 -1 -0 -0 -0 -0 0 1 1 2 1 1 0 0 1 1
7 7 7 5 3 2 1 0 0 0 1 0 -0 -0 -1 -1 -1 -1 -1 -1 -1 -1 -1 -2 -2 -2 -1 -1 -1 -1 -1 -0 -0 0 1 1 2 2 2 2 1 0 1 1 1
9 9 8 7 5 3 1 0 0 0 0 0 -0 -1 -1 -2 -1 -1 -2 -2 -2 -1 -2 -2 -2 -2 -1 -1 -1 -1 -1 -1 -0 0 1 1 2 2 2 2 1 1 1 1 1